Tracking 19476 objects as of 17-Jan-2019
HD Live streaming from Space Station
objects crossing your sky now

OPS 1920

Track OPS 1920 now!
10-day predictions
OPS 1920 is classified as:


NORAD ID: 2481
Int'l Code: 1966-089A
Perigee: 3,666.0 km
Apogee: 3,730.1 km
Inclination: 89.7 °
Period: 167.6 minutes
Semi major axis: 10069 km
RCS: 19.5528 m2 (large)
Launch date: October 5, 1966
Source: United States (US)
Launch site: AIR FORCE WESTERN TEST RANGE (AFWTR)
aabbcc
Your satellite tracking list
Your tracking list is empty




NASA's NSSDC Master Catalog

Two Line Element Set (TLE):
1  2481U 66089A   19015.85148360 +.00000001 +00000-0 -39093-3 0  9994
2  2481 089.6866 054.2740 0031866 147.5312 212.7507 08.59252232639942
Source of the keplerian elements: AFSPC